Year,Month,Day,Hour,Minute,Value (Times are PST for windgust in km/hr)
2010,01,18,00,00,14.50
2010,01,18,00,01,11.30
2010,01,18,00,02,11.30
2010,01,18,00,03,9.60
2010,01,18,00,04,12.90
2010,01,18,00,05,9.60
2010,01,18,00,06,17.70
2010,01,18,00,07,11.30
2010,01,18,00,08,4.80
2010,01,18,00,09,6.40
2010,01,18,00,10,32.20
2010,01,18,00,11,25.70
2010,01,18,00,12,29.00
2010,01,18,00,13,22.50
2010,01,18,00,14,24.20
2010,01,18,00,15,16.10
2010,01,18,00,16,45.10
2010,01,18,00,17,38.60
2010,01,18,00,18,32.20
2010,01,18,00,19,29.00
2010,01,18,00,20,27.40
2010,01,18,00,21,29.00
2010,01,18,00,22,22.50
2010,01,18,00,23,22.50
2010,01,18,00,24,22.50
2010,01,18,00,25,19.30
2010,01,18,00,26,32.20
2010,01,18,00,27,37.00
2010,01,18,00,28,30.60
2010,01,18,00,29,24.20
2010,01,18,00,30,24.20
2010,01,18,00,31,16.10
2010,01,18,00,32,4.80
2010,01,18,00,33,14.50
2010,01,18,00,34,33.80
2010,01,18,00,35,17.70
2010,01,18,00,36,19.30
2010,01,18,00,37,17.70
2010,01,18,00,38,32.20
2010,01,18,00,39,32.20
2010,01,18,00,40,22.50
2010,01,18,00,41,19.30
2010,01,18,00,42,32.20
2010,01,18,00,43,16.10
2010,01,18,00,44,27.40
2010,01,18,00,45,30.60
2010,01,18,00,46,19.30
2010,01,18,00,47,17.70
2010,01,18,00,48,35.40
2010,01,18,00,49,27.40
2010,01,18,00,50,14.50
2010,01,18,00,51,16.10
2010,01,18,00,52,17.70
2010,01,18,00,53,32.20
2010,01,18,00,54,33.80
2010,01,18,00,55,22.50
2010,01,18,00,56,27.40
2010,01,18,00,57,16.10
2010,01,18,00,58,20.90
2010,01,18,00,59,20.90
2010,01,18,01,00,16.10
2010,01,18,01,01,17.70
2010,01,18,01,02,19.30
2010,01,18,01,03,9.60
2010,01,18,01,04,8.10
2010,01,18,01,05,9.60
2010,01,18,01,06,16.10
2010,01,18,01,07,27.40
2010,01,18,01,08,24.20
2010,01,18,01,09,14.50
2010,01,18,01,10,19.30
2010,01,18,01,11,32.20
2010,01,18,01,12,37.00
2010,01,18,01,13,11.30
2010,01,18,01,14,19.30
2010,01,18,01,15,29.00
2010,01,18,01,16,43.50
2010,01,18,01,17,22.50
2010,01,18,01,18,17.70
2010,01,18,01,19,8.10
2010,01,18,01,20,19.30
2010,01,18,01,21,11.30
2010,01,18,01,22,24.20
2010,01,18,01,23,19.30
2010,01,18,01,24,9.60
2010,01,18,01,25,11.30
2010,01,18,01,26,19.30
2010,01,18,01,27,33.80
2010,01,18,01,28,25.70
2010,01,18,01,29,19.30
2010,01,18,01,30,14.50
2010,01,18,01,31,19.30
2010,01,18,01,32,30.60
2010,01,18,01,33,16.10
2010,01,18,01,34,11.30
2010,01,18,01,35,24.20
2010,01,18,01,36,35.40
2010,01,18,01,37,33.80
2010,01,18,01,38,6.40
2010,01,18,01,39,11.30
2010,01,18,01,40,24.20
2010,01,18,01,41,33.80
2010,01,18,01,42,22.50
2010,01,18,01,43,27.40
2010,01,18,01,44,24.20
2010,01,18,01,45,46.70
2010,01,18,01,46,24.20
2010,01,18,01,47,53.10
2010,01,18,01,48,35.40
2010,01,18,01,49,40.20
2010,01,18,01,53,20.90
2010,01,18,01,54,27.40
2010,01,18,01,55,51.50
2010,01,18,01,56,24.20
2010,01,18,01,57,19.30
2010,01,18,01,58,20.90
2010,01,18,01,59,16.10
2010,01,18,02,00,37.00
2010,01,18,02,01,33.80
2010,01,18,02,02,35.40
2010,01,18,02,03,40.20
2010,01,18,02,04,35.40
2010,01,18,02,05,25.70
2010,01,18,02,09,25.70
2010,01,18,02,10,27.40
2010,01,18,02,11,45.10
2010,01,18,02,12,33.80
2010,01,18,02,13,30.60
2010,01,18,02,14,33.80
2010,01,18,02,15,27.40
2010,01,18,02,16,16.10
2010,01,18,02,17,25.70
2010,01,18,02,18,24.20
2010,01,18,02,19,37.00
2010,01,18,02,20,22.50
2010,01,18,02,21,49.90
2010,01,18,02,22,24.20
2010,01,18,02,23,17.70
2010,01,18,02,24,32.20
2010,01,18,02,25,45.10
2010,01,18,02,26,40.20
2010,01,18,02,27,33.80
2010,01,18,02,28,29.00
2010,01,18,02,29,27.40
2010,01,18,02,30,29.00
2010,01,18,02,31,38.60
2010,01,18,02,32,43.50
2010,01,18,02,33,30.60
2010,01,18,02,34,53.10
2010,01,18,02,35,49.90
2010,01,18,02,36,22.50
2010,01,18,02,37,20.90
2010,01,18,02,38,19.30
2010,01,18,02,39,53.10
2010,01,18,02,40,40.20
2010,01,18,02,41,30.60
2010,01,18,02,42,57.90
2010,01,18,02,43,33.80
2010,01,18,02,44,41.80
2010,01,18,15,28,4.80
2010,01,18,15,29,4.80
2010,01,18,15,30,3.20
2010,01,18,15,31,3.20
2010,01,18,15,32,1.60
2010,01,18,15,33,0.00
2010,01,18,15,34,0.00
2010,01,18,15,35,1.60
2010,01,18,15,36,0.00
2010,01,18,15,37,0.00
2010,01,18,15,38,0.00
2010,01,18,15,39,0.00
2010,01,18,15,40,0.00
2010,01,18,15,41,0.00
2010,01,18,15,42,0.00
2010,01,18,15,43,0.00
2010,01,18,15,44,0.00
2010,01,18,15,45,0.00
2010,01,18,15,46,0.00
2010,01,18,15,47,0.00
2010,01,18,15,48,1.60
2010,01,18,15,49,0.00
2010,01,18,15,50,0.00
2010,01,18,15,51,1.60
2010,01,18,15,52,1.60
2010,01,18,15,53,1.60
2010,01,18,15,54,1.60
2010,01,18,15,55,1.60
2010,01,18,15,56,1.60
2010,01,18,15,57,1.60
2010,01,18,15,58,3.20
2010,01,18,15,59,1.60
2010,01,18,16,00,1.60
2010,01,18,16,01,1.60
2010,01,18,16,02,1.60
2010,01,18,16,03,1.60
2010,01,18,16,04,0.00
2010,01,18,16,05,1.60
2010,01,18,16,06,0.00
2010,01,18,16,07,0.00
2010,01,18,16,08,1.60
2010,01,18,16,09,3.20
2010,01,18,16,10,1.60
2010,01,18,16,11,0.00
2010,01,18,16,12,0.00
2010,01,18,16,13,1.60
2010,01,18,16,14,1.60
2010,01,18,16,15,0.00
2010,01,18,16,16,0.00
2010,01,18,16,17,0.00
2010,01,18,16,18,1.60
2010,01,18,16,19,0.00
2010,01,18,16,20,0.00
2010,01,18,16,21,0.00
2010,01,18,16,22,0.00
2010,01,18,16,23,1.60
2010,01,18,16,24,1.60
2010,01,18,16,25,0.00
2010,01,18,16,26,0.00
2010,01,18,16,27,0.00
2010,01,18,16,28,0.00
2010,01,18,16,29,0.00
2010,01,18,16,30,0.00
2010,01,18,16,31,0.00
2010,01,18,16,32,0.00
2010,01,18,16,33,1.60
2010,01,18,16,34,1.60
2010,01,18,16,35,1.60
2010,01,18,16,36,1.60
2010,01,18,16,37,3.20
2010,01,18,16,38,3.20
2010,01,18,16,39,3.20
2010,01,18,16,40,1.60
2010,01,18,16,41,1.60
2010,01,18,16,42,0.00
2010,01,18,16,43,0.00
2010,01,18,16,44,0.00
2010,01,18,16,45,1.60
2010,01,18,16,46,3.20
2010,01,18,16,47,3.20
2010,01,18,16,48,1.60
2010,01,18,16,49,0.00
2010,01,18,16,50,0.00
2010,01,18,16,51,0.00
2010,01,18,16,52,0.00
2010,01,18,16,53,1.60
2010,01,18,16,54,0.00
2010,01,18,16,55,0.00
2010,01,18,16,56,0.00
2010,01,18,16,57,0.00
2010,01,18,16,58,1.60
2010,01,18,16,59,0.00
2010,01,18,17,00,0.00
2010,01,18,17,01,0.00
2010,01,18,17,02,0.00
2010,01,18,17,03,0.00
2010,01,18,17,04,0.00
2010,01,18,17,05,0.00
2010,01,18,17,06,0.00
2010,01,18,17,07,0.00
2010,01,18,17,08,0.00
2010,01,18,17,09,0.00
2010,01,18,17,10,0.00
2010,01,18,17,11,0.00
2010,01,18,17,12,0.00
2010,01,18,17,13,1.60
2010,01,18,17,14,1.60
2010,01,18,17,15,0.00
2010,01,18,17,16,1.60
2010,01,18,17,17,1.60
2010,01,18,17,18,3.20
2010,01,18,17,19,3.20
2010,01,18,17,20,0.00
2010,01,18,17,21,0.00
2010,01,18,17,22,0.00
2010,01,18,17,23,1.60
2010,01,18,17,24,3.20
2010,01,18,17,25,3.20
2010,01,18,17,26,1.60
2010,01,18,17,27,1.60
2010,01,18,17,28,0.00
2010,01,18,17,29,1.60
2010,01,18,17,30,0.00
2010,01,18,17,31,0.00
2010,01,18,17,32,3.20
2010,01,18,17,33,1.60
2010,01,18,17,34,1.60
2010,01,18,17,35,3.20
2010,01,18,17,36,0.00
2010,01,18,17,37,1.60
2010,01,18,17,38,1.60
2010,01,18,17,39,0.00
2010,01,18,17,40,0.00
2010,01,18,17,41,0.00
2010,01,18,17,42,0.00
2010,01,18,17,43,1.60
2010,01,18,17,44,3.20
2010,01,18,17,45,3.20
2010,01,18,17,46,1.60
2010,01,18,17,47,3.20
2010,01,18,17,48,0.00
2010,01,18,17,49,3.20
2010,01,18,17,50,3.20
2010,01,18,17,51,1.60
2010,01,18,17,52,6.40
2010,01,18,17,53,3.20
2010,01,18,17,54,8.10
2010,01,18,17,55,3.20
2010,01,18,17,56,3.20
2010,01,18,17,57,3.20
2010,01,18,17,58,3.20
2010,01,18,17,59,1.60
2010,01,18,18,00,1.60
2010,01,18,18,01,3.20
2010,01,18,18,02,1.60
2010,01,18,18,03,3.20
2010,01,18,18,04,1.60
2010,01,18,18,05,1.60
2010,01,18,18,06,1.60
2010,01,18,18,07,1.60
2010,01,18,18,08,0.00
2010,01,18,18,09,0.00
2010,01,18,18,10,1.60
2010,01,18,18,11,1.60
2010,01,18,18,12,1.60
2010,01,18,18,13,3.20
2010,01,18,18,14,3.20
2010,01,18,18,15,1.60
2010,01,18,18,16,3.20
2010,01,18,18,17,1.60
2010,01,18,18,18,1.60
2010,01,18,18,19,1.60
2010,01,18,18,20,1.60
2010,01,18,18,21,3.20
2010,01,18,18,22,0.00
2010,01,18,18,23,0.00
2010,01,18,18,24,1.60
2010,01,18,18,25,0.00
2010,01,18,18,26,0.00
2010,01,18,18,27,0.00
2010,01,18,18,28,0.00
2010,01,18,18,29,1.60
2010,01,18,18,30,1.60
2010,01,18,18,31,3.20
2010,01,18,18,32,3.20
2010,01,18,18,33,3.20
2010,01,18,18,34,3.20
2010,01,18,18,35,3.20
2010,01,18,18,36,1.60
2010,01,18,18,37,1.60
2010,01,18,18,38,1.60
2010,01,18,18,39,1.60
2010,01,18,18,40,1.60
2010,01,18,18,41,0.00
2010,01,18,18,42,0.00
2010,01,18,18,43,1.60
2010,01,18,18,44,0.00
2010,01,18,18,45,1.60
2010,01,18,18,46,3.20
2010,01,18,18,47,3.20
2010,01,18,18,48,1.60
2010,01,18,18,49,1.60
2010,01,18,18,50,1.60
2010,01,18,18,51,3.20
2010,01,18,18,52,3.20
2010,01,18,18,53,3.20
2010,01,18,18,54,1.60
2010,01,18,18,55,1.60
2010,01,18,18,56,1.60
2010,01,18,18,57,1.60
2010,01,18,18,58,1.60
2010,01,18,18,59,1.60
2010,01,18,19,00,0.00
2010,01,18,19,01,0.00
2010,01,18,19,02,0.00
2010,01,18,19,03,0.00
2010,01,18,19,04,1.60
2010,01,18,19,05,0.00
2010,01,18,19,06,1.60
2010,01,18,19,07,1.60
2010,01,18,19,08,0.00
2010,01,18,19,09,1.60
2010,01,18,19,10,0.00
2010,01,18,19,11,0.00
2010,01,18,19,12,0.00
2010,01,18,19,13,1.60
2010,01,18,19,14,0.00
2010,01,18,19,15,1.60
2010,01,18,19,16,1.60
2010,01,18,19,17,1.60
2010,01,18,19,18,3.20
2010,01,18,19,19,1.60
2010,01,18,19,20,0.00
2010,01,18,19,21,1.60
2010,01,18,19,22,1.60
2010,01,18,19,23,1.60
2010,01,18,19,24,1.60
2010,01,18,19,25,0.00
2010,01,18,19,26,0.00
2010,01,18,19,27,0.00
2010,01,18,19,28,0.00
2010,01,18,19,29,0.00
2010,01,18,19,30,3.20
2010,01,18,19,31,3.20
2010,01,18,19,32,1.60
2010,01,18,19,33,1.60
2010,01,18,19,34,0.00
2010,01,18,19,35,0.00
2010,01,18,19,36,3.20
2010,01,18,19,37,3.20
2010,01,18,19,38,1.60
2010,01,18,19,39,0.00
2010,01,18,19,40,0.00
2010,01,18,19,41,0.00
2010,01,18,19,42,0.00
2010,01,18,19,43,3.20
2010,01,18,19,44,1.60
2010,01,18,19,45,1.60
2010,01,18,19,46,1.60
2010,01,18,19,47,1.60
2010,01,18,19,48,1.60
2010,01,18,19,49,1.60
2010,01,18,19,50,1.60
2010,01,18,19,51,0.00
2010,01,18,19,52,0.00
2010,01,18,19,53,0.00
2010,01,18,19,54,0.00
2010,01,18,19,55,3.20
2010,01,18,19,56,3.20
2010,01,18,19,57,3.20
2010,01,18,19,58,3.20
2010,01,18,19,59,1.60
2010,01,18,20,00,1.60
2010,01,18,20,01,3.20
2010,01,18,20,02,3.20
2010,01,18,20,03,3.20
2010,01,18,20,04,3.20
2010,01,18,20,05,1.60
2010,01,18,20,06,1.60
2010,01,18,20,07,1.60
2010,01,18,20,08,0.00
2010,01,18,20,09,0.00
2010,01,18,20,10,1.60
2010,01,18,20,11,1.60
2010,01,18,20,12,1.60
2010,01,18,20,13,1.60
2010,01,18,20,14,1.60
2010,01,18,20,15,0.00
2010,01,18,20,16,1.60
2010,01,18,20,17,1.60
2010,01,18,20,18,3.20
2010,01,18,20,19,1.60
2010,01,18,20,20,3.20
2010,01,18,20,21,3.20
2010,01,18,20,22,1.60
2010,01,18,20,23,3.20
2010,01,18,20,24,0.00
2010,01,18,20,25,1.60
2010,01,18,20,26,3.20
2010,01,18,20,27,1.60
2010,01,18,20,28,0.00
2010,01,18,20,29,0.00
2010,01,18,20,30,1.60
2010,01,18,20,31,0.00
2010,01,18,20,32,1.60
2010,01,18,20,33,1.60
2010,01,18,20,34,1.60
2010,01,18,20,35,0.00
2010,01,18,20,36,0.00
2010,01,18,20,37,0.00
2010,01,18,20,38,0.00
2010,01,18,20,39,1.60
2010,01,18,20,40,0.00
2010,01,18,20,41,0.00
2010,01,18,20,42,0.00
2010,01,18,20,43,0.00
2010,01,18,20,44,0.00
2010,01,18,20,45,1.60
2010,01,18,20,46,1.60
2010,01,18,20,47,1.60
2010,01,18,20,48,0.00
2010,01,18,20,49,1.60
2010,01,18,20,50,4.80
2010,01,18,20,51,3.20
2010,01,18,20,52,0.00
2010,01,18,20,53,0.00
2010,01,18,20,54,3.20
2010,01,18,20,55,1.60
2010,01,18,20,56,1.60
2010,01,18,20,57,1.60
2010,01,18,20,58,1.60
2010,01,18,20,59,3.20
2010,01,18,21,00,1.60
2010,01,18,21,01,1.60
2010,01,18,21,02,1.60
2010,01,18,21,03,1.60
2010,01,18,21,04,1.60
2010,01,18,21,05,3.20
2010,01,18,21,06,1.60
2010,01,18,21,07,0.00
2010,01,18,21,08,0.00
2010,01,18,21,09,0.00
2010,01,18,21,10,1.60
2010,01,18,21,11,1.60
2010,01,18,21,12,1.60
2010,01,18,21,13,1.60
2010,01,18,21,14,3.20
2010,01,18,21,15,1.60
2010,01,18,21,16,1.60
2010,01,18,21,17,1.60
2010,01,18,21,18,0.00
2010,01,18,21,19,0.00
2010,01,18,21,20,0.00
2010,01,18,21,21,0.00
2010,01,18,21,22,3.20
2010,01,18,21,23,4.80
2010,01,18,21,24,1.60
2010,01,18,21,25,1.60
2010,01,18,21,26,3.20
2010,01,18,21,27,3.20
2010,01,18,21,28,0.00
2010,01,18,21,29,1.60
2010,01,18,21,30,1.60
2010,01,18,21,31,3.20
2010,01,18,21,32,1.60
2010,01,18,21,33,1.60
2010,01,18,21,34,0.00
2010,01,18,21,35,1.60
2010,01,18,21,36,1.60
2010,01,18,21,37,1.60
2010,01,18,21,38,1.60
2010,01,18,21,39,1.60
2010,01,18,21,40,1.60
2010,01,18,21,41,0.00
2010,01,18,21,42,1.60
2010,01,18,21,43,1.60
2010,01,18,21,44,3.20
2010,01,18,21,45,3.20
2010,01,18,21,46,3.20
2010,01,18,21,47,6.40
2010,01,18,21,48,8.10
2010,01,18,21,49,4.80
2010,01,18,21,50,3.20
2010,01,18,21,51,0.00
2010,01,18,21,52,3.20
2010,01,18,21,53,3.20
2010,01,18,21,54,3.20
2010,01,18,21,55,1.60
2010,01,18,21,56,0.00
2010,01,18,21,57,4.80
2010,01,18,21,58,3.20
2010,01,18,21,59,1.60
2010,01,18,22,00,4.80
2010,01,18,22,01,1.60
2010,01,18,22,02,0.00
2010,01,18,22,03,3.20
2010,01,18,22,04,8.10
2010,01,18,22,05,11.30
2010,01,18,22,06,4.80
2010,01,18,22,07,1.60
2010,01,18,22,08,1.60
2010,01,18,22,09,0.00
2010,01,18,22,10,4.80
2010,01,18,22,11,6.40
2010,01,18,22,12,1.60
2010,01,18,22,13,1.60
2010,01,18,22,14,6.40
2010,01,18,22,15,3.20
2010,01,18,22,16,1.60
2010,01,18,22,17,6.40
2010,01,18,22,18,6.40
2010,01,18,22,19,4.80
2010,01,18,22,20,4.80
2010,01,18,22,21,1.60
2010,01,18,22,22,3.20
2010,01,18,22,23,0.00
2010,01,18,22,24,3.20
2010,01,18,22,25,0.00
2010,01,18,22,26,1.60
2010,01,18,22,27,1.60
2010,01,18,22,28,0.00
2010,01,18,22,29,0.00
2010,01,18,22,30,1.60
2010,01,18,22,31,1.60
2010,01,18,22,32,3.20
2010,01,18,22,33,1.60
2010,01,18,22,34,4.80
2010,01,18,22,35,6.40
2010,01,18,22,36,3.20
2010,01,18,22,37,1.60
2010,01,18,22,38,0.00
2010,01,18,22,39,0.00
2010,01,18,22,40,1.60
2010,01,18,22,41,1.60
2010,01,18,22,42,1.60
2010,01,18,22,43,1.60
2010,01,18,22,44,3.20
2010,01,18,22,45,3.20
2010,01,18,22,46,0.00
2010,01,18,22,47,1.60
2010,01,18,22,48,1.60
2010,01,18,22,49,3.20
2010,01,18,22,50,4.80
2010,01,18,22,51,4.80
2010,01,18,22,52,4.80
2010,01,18,22,53,1.60
2010,01,18,22,54,1.60
2010,01,18,22,55,3.20
2010,01,18,22,56,1.60
2010,01,18,22,57,8.10
2010,01,18,22,58,6.40
2010,01,18,22,59,3.20
2010,01,18,23,00,6.40
2010,01,18,23,01,4.80
2010,01,18,23,02,6.40
2010,01,18,23,03,1.60
2010,01,18,23,04,1.60
2010,01,18,23,05,1.60
2010,01,18,23,06,0.00
2010,01,18,23,07,0.00
2010,01,18,23,08,3.20
2010,01,18,23,09,3.20
2010,01,18,23,10,1.60
2010,01,18,23,11,3.20
2010,01,18,23,12,1.60
2010,01,18,23,13,1.60
2010,01,18,23,14,1.60
2010,01,18,23,15,1.60
2010,01,18,23,16,0.00
2010,01,18,23,17,1.60
2010,01,18,23,18,4.80
2010,01,18,23,19,4.80
2010,01,18,23,20,3.20
2010,01,18,23,21,1.60
2010,01,18,23,22,1.60
2010,01,18,23,23,3.20
2010,01,18,23,24,1.60
2010,01,18,23,25,0.00
2010,01,18,23,26,0.00
2010,01,18,23,27,1.60
2010,01,18,23,28,0.00
2010,01,18,23,29,1.60
2010,01,18,23,30,0.00
2010,01,18,23,31,1.60
2010,01,18,23,32,1.60
2010,01,18,23,33,0.00
2010,01,18,23,34,0.00
2010,01,18,23,35,0.00
2010,01,18,23,36,3.20
2010,01,18,23,37,4.80
2010,01,18,23,38,4.80
2010,01,18,23,39,1.60
2010,01,18,23,40,1.60
2010,01,18,23,41,1.60
2010,01,18,23,42,1.60
2010,01,18,23,43,0.00
2010,01,18,23,44,3.20
2010,01,18,23,45,1.60
2010,01,18,23,46,0.00
2010,01,18,23,47,0.00
2010,01,18,23,48,0.00
2010,01,18,23,49,0.00
2010,01,18,23,50,0.00
2010,01,18,23,51,0.00
2010,01,18,23,52,0.00
2010,01,18,23,53,3.20
2010,01,18,23,54,1.60
2010,01,18,23,55,0.00
2010,01,18,23,56,0.00
2010,01,18,23,57,0.00
2010,01,18,23,58,0.00
2010,01,18,23,59,0.00
